This is the latest recevied weather packets stored in our database for station/object WX6HNX-2. If no packets are shown the sender has not sent any weather packets the latest 10 day(s).
| Time | Temp. | Humidity | Pressure | Rain* | Wind** | Luminosity | Snow |
|---|---|---|---|---|---|---|---|
| 1777735989 | 17.78° C | 72% | 1013 hPa | 0 mm | - | - | - |
| 1777735749 | 17.78° C | 73% | 1013 hPa | 0 mm | - | - | - |
| 1777735509 | 17.22° C | 72% | 1013.1 hPa | 0 mm | - | - | - |
| 1777735269 | 17.22° C | 75% | 1013.1 hPa | 0 mm | - | - | - |
| 1777735029 | 16.67° C | 75% | 1013 hPa | 0 mm | - | - | - |
| 1777734789 | 16.67° C | 79% | 1013 hPa | 0 mm | - | - | - |
| 1777734549 | 16.11° C | 79% | 1013 hPa | 0 mm | - | - | - |
| 1777734309 | 15.56° C | 81% | 1013.1 hPa | 0 mm | - | - | - |
| 1777734071 | 15° C | 82% | 1013.2 hPa | 0 mm | - | - | - |
| 1777733829 | 15° C | 83% | 1013.2 hPa | 0 mm | - | - | - |
| 1777733349 | 13.89° C | 86% | 1013.1 hPa | 0 mm | - | - | - |
| 1777733109 | 13.33° C | 89% | 1013.1 hPa | 0 mm | - | - | - |
| 1777732869 | 12.78° C | 90% | 1013.1 hPa | 0 mm | - | - | - |
| 1777732629 | 12.22° C | 90% | 1013.1 hPa | 0 mm | - | - | - |
| 1777732389 | 12.22° C | 90% | 1013 hPa | 0 mm | - | - | - |
| 1777732149 | 11.67° C | 91% | 1013.1 hPa | 0 mm | - | - | - |
| 1777731909 | 11.11° C | 91% | 1013.1 hPa | 0 mm | - | - | - |
| 1777731669 | 11.11° C | 91% | 1013.1 hPa | 0 mm | - | - | - |
| 1777731189 | 10.56° C | 92% | 1013.1 hPa | 0 mm | - | - | - |
| 1777730949 | 10.56° C | 92% | 1013 hPa | 0 mm | - | - | - |
| 1777730471 | 10° C | 91% | 1013 hPa | 0 mm | - | - | - |
| 1777729425 | 10° C | 91% | 1012.8 hPa | 0 mm | - | - | - |
| 1777729186 | 10° C | 91% | 1012.8 hPa | 0 mm | - | - | - |
| 1777728945 | 9.44° C | 91% | 1012.7 hPa | 0 mm | - | - | - |
| 1777727985 | 10° C | 90% | 1012.5 hPa | 0 mm | - | - | - |
* Rain latest hour (hover to see other rain measurements)
** Current wind speed in m/s (hover to see current wind gust speed)